Weather observations for the past three days for
Walla Walla Regional Airport
Imperial (Metric)
Date Time (pdt) Wind (mph) Vis. (mi.) Weather Sky Cond. Temperature (ºF) Relative Humidity Wind Chill (°F) Heat Index (°F) Pressure Precipitation (in)
Air Dwpt 6 hour altimeter (in) sea level (mb) 1 hr 3 hr 6 hr
Max. Min.
09 06:53 S 6 10.00 Fair CLR 54 43 67% 30.15 1020.6
09 05:53 S 8 10.00 Fair CLR 52 42.1 69% 30.14 1020.4
09 04:53 S 10 10.00 Fair CLR 52 42.1 57.9 52 69% 30.14 1020.2
09 03:53 S 9 10.00 Fair CLR 52 42.1 69% 30.14 1020.2
09 02:53 S 10 10.00 Fair CLR 52 42.1 69% 30.12 1019.8
09 01:53 S 14 10.00 Fair CLR 54 42.1 64% 30.11 1019.5
09 00:53 S 13 10.00 Fair CLR 55 41 59% 30.11 1019.2
08 23:53 S 13 10.00 Fair CLR 55.9 41 57% 30.09 1018.8
08 22:53 S 10 10.00 Fair CLR 57.9 39 75 57.9 50% 30.08 1018.4
08 21:53 S 12 10.00 Fair CLR 60.1 37.9 44% 30.06 1017.7
08 20:53 S 12 10.00 Fair CLR 64 36 35% 30.03 1016.5
08 19:53 SW 13 10.00 Fair CLR 66.9 34 30% 30 1015.4
08 18:53 W 15 G 25 10.00 Fair CLR 72 30.9 22% 29.97 1014.5
08 17:53 W 20 G 26 10.00 Fair CLR 73.9 27 17% 29.97 1014.6
08 16:53 SW 17 G 30 10.00 A Few Clouds FEW120 75 21.9 75.9 66 14% 75 29.97 1014.5
08 15:53 W 14 10.00 Fair CLR 75 18 11% 75 29.98 1014.9
08 14:53 W 17 10.00 Fair CLR 73.9 30 20% 29.99 1015.2
08 13:53 SW 20 G 26 10.00 Fair CLR 73 32 22% 29.98 1014.9
08 12:53 S 13 G 22 10.00 Fair CLR 70 36 29% 29.99 1015.2
08 11:53 SW 16 10.00 Fair CLR 68 34 28% 30 1015.5
08 10:53 SW 20 G 31 10.00 Fair CLR 66 39.9 66 54 39% 30.01 1016.1
08 09:53 S 16 10.00 Fair CLR 66 39.9 39% 30 1015.4
08 08:53 S 21 G 26 10.00 Fair and Breezy CLR 64.9 37 36% 29.99 1015.2
08 07:53 S 18 10.00 Fair CLR 63 36 37% 29.98 1014.9
08 06:53 S 16 10.00 Fair CLR 61 36 39% 29.98 1014.6
08 05:53 S 12 10.00 Fair CLR 55.9 27 33% 29.97 1014.3
08 04:53 S 10 10.00 Fair CLR 55 25 62.1 51.1 31% 29.95 1013.9
08 03:53 SE 6 10.00 Fair CLR 54 24.1 31% 29.94 1013.6
08 02:53 S 8 10.00 Fair CLR 57 23 27% 29.95 1013.7
08 01:53 S 10 10.00 Fair CLR 57.9 25 28% 29.94 1013.5
08 00:53 S 9 10.00 Fair CLR 59 28.9 32% 29.94 1013.4
07 23:53 S 10 10.00 Fair CLR 61 30.9 32% 29.93 1013.3
07 22:53 SE 6 10.00 Fair CLR 62.1 35.1 75.9 61 37% 29.92 1012.8
07 21:53 SE 7 10.00 Fair CLR 62.1 34 35% 29.91 1012.6
07 20:53 SE 8 10.00 Fair CLR 64 35.1 34% 29.91 1012.6
07 19:53 S 3 10.00 Fair CLR 68 32 26% 29.9 1012.2
07 18:53 SW 6 10.00 Fair CLR 73 27 18% 29.9 1012.1
07 17:53 W 5 10.00 Fair CLR 75 30.9 20% 76 29.91 1012.5
07 16:53 Calm 10.00 Fair CLR 75 32 75.9 68 21% 76 29.92 1012.6
07 15:53 W 7 G 17 10.00 Fair CLR 75 32 21% 76 29.93 1013.2
07 14:53 S 10 G 20 10.00 Fair CLR 73.9 34 23% 29.95 1013.9
07 13:53 S 15 G 26 10.00 Fair CLR 73 37 27% 29.97 1014.5
07 12:53 S 13 10.00 Fair CLR 72 39.9 31% 29.98 1014.9
07 11:53 S 13 10.00 Fair CLR 69.1 39.9 35% 29.99 1015.3
07 10:53 SW 16 10.00 Fair CLR 68 41 68 54 38% 30 1015.6
07 09:53 S 14 G 22 10.00 Fair CLR 63 45 52% 30.01 1016.1
07 08:53 S 16 10.00 Fair CLR 61 44.1 54% 30.01 1016.1
07 07:53 SW 14 10.00 Fair CLR 60.1 44.1 56% 30.02 1016.0
07 06:53 S 7 10.00 Fair CLR 55 46 72% 30 1015.5
07 05:53 S 7 10.00 Fair CLR 55 46 72% 29.99 1015.1
07 04:53 S 14 10.00 Fair CLR 55.9 45 63 55 67% 29.98 1014.7
07 03:53 S 9 10.00 Fair CLR 55.9 45 67% 29.99 1015.0
07 02:53 S 16 10.00 Fair CLR 57.9 45 62% 29.98 1014.7
07 01:53 S 13 10.00 Fair CLR 57.9 44.1 60% 29.98 1014.5
07 00:53 S 13 10.00 Fair CLR 60.1 44.1 56% 29.97 1014.4
06 23:53 S 10 10.00 Fair CLR 61 43 52% 29.96 1014.0
06 22:53 S 12 10.00 Fair CLR 64 43 80.1 64 46% 29.96 1013.9
06 21:53 S 14 10.00 Mostly Cloudy BKN100 66.9 45 45% 29.95 1013.8
06 20:53 S 14 10.00 Fair CLR 69.1 46 44% 29.93 1013.0
06 19:53 S 13 10.00 A Few Clouds FEW100 73 46.9 40% 29.91 1012.2
06 18:53 S 14 G 22 10.00 Fair CLR 75 48 39% 77 29.88 1011.5
06 17:53 SW 15 10.00 Fair CLR 78.1 48 35% 78 29.88 1011.2
06 16:53 SW 17 10.00 Fair CLR 80.1 46.9 82 73 31% 79 29.88 1011.2
06 15:53 W 14 10.00 Fair CLR 81 46.9 30% 80 29.89 1011.4
06 14:53 W 15 10.00 Fair CLR 81 43 26% 80 29.91 1012.1
06 13:53 SW 17 10.00 Fair CLR 82 46 28% 80 29.91 1012.3
06 12:53 SW 16 G 26 10.00 Fair CLR 80.1 48 33% 79 29.92 1012.3
06 11:53 SW 10 G 22 10.00 Fair CLR 77 50 39% 78 29.94 1013.1
06 10:53 SW 15 G 22 10.00 Fair CLR 73.9 48 73.9 55.9 40% 29.96 1014.1
06 09:53 S 13 10.00 Fair CLR 71.1 48.9 46% 29.96 1014.1
06 08:53 S 14 10.00 Fair CLR 68 48.9 51% 29.96 1014.2
06 07:53 S 13 10.00 Fair CLR 64.9 48 54% 29.96 1014.0
Date Time (pdt) Wind (mph) Vis. (mi.) Weather Sky Cond. Air Dwpt Max. Min. Relative Humidity Wind Chill (°F) Heat Index (°F) altimeter (in) sea level (mb) 1 hr 3 hr 6 hr
6 hour
Temperature (ºF) Pressure Precipitation (in)